Regional Weather Roundup
Issued by NWS Memphis, TN

Home | Current Version | Previous Version | Text Only | Print | Product List | Glossary On
Versions: 1 2 3 4 5 6 7 8 9 10 11 12 13 14 15 16 17 18 19 20 21 22 23 24 25 26 27 28 29 30 31 32 33 34 35 36 37 38 39 40 41 42 43 44 45 46 47 48 49 50
000
ASUS44 KMEG 242110
RWRMEG
MEMPHIS CWA HOURLY WEATHER ROUNDUP
NATIONAL WEATHER SERVICE MEMPHIS TN
300 PM CST FRI NOV 24 2017

...WEST TENNESSEE...

CITY           SKY/WX    TMP DP  RH WIND       PRES   REMARKS
MEMPHIS INTL   PTSUNNY   62  32  32 SW10      29.89F
NWS MEMPHIS      N/A     62 N/A N/A MISG        N/A
JACKSON        SUNNY     62  32  32 SW10      29.88F
COVINGTON      SUNNY     63  32  31 SW10G16   29.88F
SOMERVILLE     SUNNY     63  30  29 VRB7G15   29.88F
BOLIVAR        SUNNY     63  28  27 S8        29.89F
LEXINGTON      SUNNY     63  27  25 S10       29.89F
SELMER         SUNNY     61  28  29 VRB6      29.90F
SAVANNAH       SUNNY     61  27  27 S5        29.90F
DYERSBURG      SUNNY     64  34  32 S8        29.86F
UNION CITY     SUNNY     63  34  34 S14       29.84F
PARIS          SUNNY     61  32  33 S10       29.85F HAZE
HUNTINGDON     SUNNY     63  32  31 S12       29.86F


...EASTERN ARKANSAS...

CITY           SKY/WX    TMP DP  RH WIND       PRES   REMARKS
JONESBORO      SUNNY     65  38  36 S15       29.83F
WEST MEMPHIS   SUNNY     62  35  36 S14       29.87F
BATESVILLE     SUNNY     69  34  27 SW15G23   29.81F
NEWPORT        SUNNY     67  35  30 S17       29.82F
WALNUT RIDGE     N/A     66  35  31 S20       29.80F
BLYTHEVILLE    SUNNY     63  37  38 S16       29.85F
SEARCY         SUNNY     68  35  29 S12       29.84F
STUTTGART      SUNNY     65  33  30 S10       29.88F
PINE BLUFF     SUNNY     67  34  29 SW13      29.88F
MONTICELLO     SUNNY     66  33  29 SW7       29.90F


...NORTH MISSISSIPPI...

CITY           SKY/WX    TMP DP  RH WIND       PRES   REMARKS
TUPELO         MOSUNNY   62  24  23 SE6       29.92F
OXFORD         MOSUNNY   61  28  29 SW6       29.93F
BATESVILLE     MOSUNNY   64  25  23 SW8       29.93S
OLIVE BRANCH   PTSUNNY  N/A N/A N/A S12       29.86F
TUNICA           N/A    N/A N/A N/A S15       29.91F HAZE
CLARKSDALE       N/A     64  32  29 S9G17     29.91F
CORINTH        MOSUNNY   61  27  27 SW9       29.91S
GREENWOOD      MOSUNNY   64  28  25 SW8       29.93F
COLUMBUS       SUNNY     63  31  30 CALM      29.93F
STARKVILLE     SUNNY     63  27  25 CALM      29.94F
GOLDEN TRIANGL SUNNY     64  25  22 VRB5      29.94F


...SOUTHEAST MISSOURI...

CITY           SKY/WX    TMP DP  RH WIND       PRES   REMARKS
KENNETT        SUNNY     64  36  34 S15       29.81F HAZE
MALDEN         SUNNY     64  34  32 S16       29.81F
WEST PLAINS    SUNNY     69  33  26 S12       29.75F
POPLAR BLUFF   SUNNY     65  36  34 SW13      29.78F
CAPE GIRARDEAU SUNNY     60  38  43 S14G22    29.78F


...NORTHWEST ALABAMA...

CITY           SKY/WX    TMP DP  RH WIND       PRES   REMARKS
MUSCLE SHOALS  SUNNY     64  26  23 S7        29.92F


...MIDDLE TENNESSEE...

CITY           SKY/WX    TMP DP  RH WIND       PRES   REMARKS
NASHVILLE      PTSUNNY   63  24  22 SW9       29.89F
CLARKSVILLE    SUNNY     61  25  25 SW8       29.87F
COLUMBIA       SUNNY     63  27  25 SW9       29.88F


...WESTERN KENTUCKY...

CITY           SKY/WX    TMP DP  RH WIND       PRES   REMARKS
PADUCAH        SUNNY     63  32  31 VRB7      29.81F
FORT CAMPBELL  MOSUNNY   62  26  25 S10       29.86F


...CENTRAL ARKANSAS...

CITY           SKY/WX    TMP DP  RH WIND       PRES   REMARKS
LITTLE ROCK    PTSUNNY   68  33  27 S12       29.85F


SKY/WX REPORTED AS FAIR MEANS FEW OR NO CLOUDS BELOW
12 THOUSAND FEET.





USA.gov is the U.S. government's official web portal to all federal, state and local government web resources and services.